Location: York
(31.8935°S, 116.7682°E)
Time: 22:09:46
(UTC+08:00)

Hubble Space Telescope - Visible Passes

Search period start: 25 September 2022 00:00
Search period end: 05 October 2022 00:00
Orbit: 531 x 535 km, 28.5° (Epoch: 25 September)

Date Brightness Start Highest point End Pass type
(mag) Time Alt. Az. Time Alt. Az. Time Alt. Az.
27 Sep 3.3 04:34:36 10° N 04:36:21 12° NNE 04:38:06 10° NE visible
28 Sep 3.0 04:22:44 13° N 04:24:03 15° NNE 04:26:30 10° ENE visible
29 Sep 2.7 04:11:17 18° NNE 04:11:44 19° NNE 04:14:39 10° ENE visible
30 Sep 2.6 03:59:46 22° NNE 03:59:46 22° NNE 04:02:41 10° ENE visible
01 Oct 2.6 03:48:13 23° NE 03:48:13 23° NE 03:50:37 10° ENE visible
01 Oct 1.3 05:23:53 10° WNW 05:27:54 49° N 05:31:56 10° E visible
02 Oct 2.9 03:36:37 21° ENE 03:36:37 21° ENE 03:38:30 10° ENE visible
02 Oct 1.2 05:11:51 11° WNW 05:15:39 52° N 05:19:41 10° E visible
03 Oct 3.2 03:25:00 18° ENE 03:25:00 18° ENE 03:26:20 10° E visible
03 Oct 1.2 05:00:14 16° WNW 05:03:24 53° N 05:07:26 10° ENE visible
04 Oct 3.5 03:13:23 15° ENE 03:13:23 15° ENE 03:14:09 10° E visible
04 Oct 1.1 04:48:36 21° WNW 04:51:08 53° N 04:55:11 10° ENE visible
